| time (UTC) | temp F | wind direction | speed MPH | gust MPH | rain 1hr in | rain 24hr in | rain mn in | humidity % | barometer mb |
| 20260904021530 | 58 | 247 | 3.0 | 9.0 | 0.01 | 0.14 | 0.03 | 82 | 1004.7 |
| 20260904020028 | 58 | 242 | 4.0 | 9.0 | 0.01 | 0.14 | 0.02 | 77 | 1004.6 |
| 20260904014530 | 58 | 242 | 6.0 | 11.0 | 0.00 | 0.13 | 0.02 | 76 | 1004.3 |
| 20260904013028 | 58 | 247 | 5.0 | 11.0 | 0.00 | 0.13 | 0.02 | 79 | 1004.2 |
| 20260904011532 | 58 | 261 | 5.0 | 14.0 | 0.00 | 0.14 | 0.02 | 81 | 1004.3 |
| 20260904010029 | 58 | 253 | 4.0 | 9.0 | 0.01 | 0.14 | 0.02 | 81 | 1004.4 |
| 20260904004530 | 58 | 246 | 5.0 | 10.0 | 0.02 | 0.14 | 0.02 | 81 | 1004.4 |
| 20260904003032 | 58 | 253 | 8.0 | 16.0 | 0.02 | 0.14 | 0.02 | 79 | 1004.3 |
| 20260904001558 | 59 | 251 | 8.0 | 17.0 | 0.02 | 0.14 | 0.01 | 76 | 1004.1 |
| 20260904000032 | 62 | 257 | 9.0 | 16.0 | 0.01 | 0.13 | 0.00 | 69 | 1004.1 |
| 20260903234530 | 63 | 260 | 8.0 | 18.0 | 0.00 | 0.12 | 0.00 | 62 | 1004.1 |
| 20260903233031 | 64 | 265 | 8.0 | 17.0 | 0.00 | 0.12 | 0.00 | 62 | 1004.0 |
| 20260903230032 | 68 | 289 | 5.0 | 15.0 | 0.00 | 0.12 | 0.00 | 51 | 1004.0 |
| 20260903224531 | 69 | 263 | 3.0 | 9.0 | 0.00 | 0.12 | 0.00 | 50 | 1004.0 |
| 20260903223106 | 68 | 258 | 4.0 | 8.0 | 0.00 | 0.12 | 0.00 | 50 | 1004.1 |
| 20260903221531 | 70 | 278 | 4.0 | 8.0 | 0.00 | 0.12 | 0.00 | 46 | 1004.0 |
| 20260903220032 | 72 | 269 | 2.0 | 6.0 | 0.00 | 0.12 | 0.00 | 43 | 1004.1 |
| 20260903214530 | 73 | 17 | 2.0 | 5.0 | 0.00 | 0.12 | 0.00 | 42 | 1004.1 |
| 20260903213029 | 74 | 293 | 3.0 | 6.0 | 0.00 | 0.12 | 0.00 | 45 | 1004.2 |
| 20260903210031 | 72 | 336 | 2.0 | 7.0 | 0.00 | 0.14 | 0.00 | 46 | 1004.5 |
| 20260903204526 | 70 | 314 | 4.0 | 8.0 | 0.00 | 0.14 | 0.00 | 48 | 1004.6 |
| 20260903203030 | 70 | 333 | 4.0 | 9.0 | 0.00 | 0.14 | 0.00 | 50 | 1004.7 |
| 20260903201529 | 69 | 347 | 4.0 | 7.0 | 0.00 | 0.14 | 0.00 | 52 | 1004.9 |
| 20260903200031 | 69 | 347 | 3.0 | 7.0 | 0.00 | 0.15 | 0.00 | 57 | 1005.2 |
| 20260903194536 | 66 | 339 | 3.0 | 7.0 | 0.00 | 0.15 | 0.00 | 60 | 1005.5 |
| 20260903193030 | 65 | 333 | 2.0 | 5.0 | 0.00 | 0.15 | 0.00 | 61 | 1005.9 |
| 20260903191604 | 66 | 9 | 1.0 | 4.0 | 0.00 | 0.15 | 0.00 | 59 | 1006.0 |
| 20260903190031 | 65 | 310 | 2.0 | 5.0 | 0.00 | 0.15 | 0.00 | 63 | 1006.0 |
| 20260903184529 | 63 | 324 | 2.0 | 5.0 | 0.00 | 0.15 | 0.00 | 67 | 1006.3 |
| 20260903181532 | 61 | 312 | 1.0 | 4.0 | 0.00 | 5.27 | 0.00 | 72 | 1006.6 |
| 20260903180106 | 60 | 302 | 2.0 | 4.0 | 0.00 | 5.27 | 0.00 | 75 | 1006.5 |
| 20260903174529 | 59 | 231 | 0.0 | 4.0 | 0.00 | 5.27 | 0.00 | 76 | 1006.5 |
| 20260903173031 | 59 | 360 | 0.0 | 3.0 | 0.00 | 5.27 | 0.00 | 77 | 1006.5 |
| 20260903171530 | 58 | 295 | 0.0 | 3.0 | 0.00 | 5.27 | 0.00 | 78 | 1006.5 |
| 20260903170036 | 58 | 293 | 0.0 | 4.0 | 0.00 | 5.27 | 0.00 | 79 | 1006.7 |
| 20260903164529 | 57 | 325 | 0.0 | 4.0 | 0.00 | 5.27 | 0.00 | 78 | 1006.7 |
| 20260903163038 | 57 | 258 | 1.0 | 3.0 | 0.00 | 5.27 | 0.00 | 79 | 1006.7 |
| 20260903161645 | 56 | 289 | 1.0 | 4.0 | 0.00 | 5.27 | 0.00 | 81 | 1006.8 |
| 20260903160037 | 56 | 277 | 1.0 | 4.0 | 0.00 | 5.27 | 0.00 | 82 | 1006.9 |
| 20260903151529 | 53 | 112 | 1.0 | 3.0 | 0.00 | 5.27 | 0.00 | 86 | 1006.8 |
| 20260903150031 | 52 | 82 | 2.0 | 3.0 | 0.00 | 5.27 | 0.00 | 89 | 1006.7 |
| 20260903144535 | 52 | 271 | 0.0 | 2.0 | 0.00 | 5.27 | 0.00 | 90 | 1006.6 |
| 20260903143030 | 51 | 270 | 0.0 | 0.0 | 0.00 | 5.27 | 0.00 | 90 | 1006.6 |
| 20260903140032 | 51 | 270 | 0.0 | 3.0 | 0.00 | 5.27 | 0.00 | 88 | 1006.5 |
| 20260903134604 | 51 | 233 | 1.0 | 4.0 | 0.00 | 5.27 | 0.00 | 87 | 1006.3 |
| 20260903131529 | 51 | 112 | 3.0 | 5.0 | 0.00 | 5.27 | 0.00 | 88 | 1006.0 |
| 20260903130030 | 50 | 112 | 2.0 | 5.0 | 0.00 | 5.27 | 0.00 | 90 | 1006.1 |
| 20260903124529 | 50 | 112 | 1.0 | 4.0 | 0.00 | 5.27 | 0.00 | 91 | 1006.1 |
| 20260903123037 | 51 | 112 | 0.0 | 2.0 | 0.00 | 5.27 | 0.00 | 91 | 1006.1 |
| 20260903121529 | 51 | 112 | 0.0 | 3.0 | 0.00 | 5.27 | 0.00 | 91 | 1006.1 |
| 20260903114531 | 50 | 270 | 0.0 | 1.0 | 0.00 | 5.27 | 0.00 | 88 | 1006.0 |
| 20260903111527 | 51 | 187 | 0.0 | 2.0 | 0.00 | 5.27 | 0.00 | 88 | 1005.7 |
| 20260903110108 | 52 | 109 | 2.0 | 4.0 | 0.00 | 5.27 | 0.00 | 86 | 1005.4 |
| 20260903104537 | 53 | 353 | 1.0 | 4.0 | 0.00 | 5.27 | 0.00 | 85 | 1005.4 |
| 20260903103027 | 53 | 107 | 4.0 | 5.0 | 0.00 | 5.27 | 0.00 | 87 | 1005.5 |
| 20260903101529 | 53 | 120 | 3.0 | 7.0 | 0.00 | 5.27 | 0.00 | 89 | 1005.5 |
| 20260903100030 | 53 | 225 | 0.0 | 2.0 | 0.00 | 5.27 | 0.00 | 88 | 1005.6 |
| 20260903094532 | 53 | 225 | 0.0 | 2.0 | 0.00 | 5.27 | 0.00 | 86 | 1005.3 |
| 20260903091529 | 53 | 114 | 1.0 | 2.0 | 0.00 | 5.27 | 0.00 | 82 | 1005.3 |
| 20260903090030 | 54 | 112 | 3.0 | 4.0 | 0.00 | 5.27 | 0.00 | 82 | 1005.2 |
| 20260903084529 | 53 | 112 | 2.0 | 4.0 | 0.00 | 5.27 | 0.00 | 85 | 1005.1 |
| 20260903083032 | 53 | 327 | 0.0 | 3.0 | 0.00 | 5.27 | 0.00 | 84 | 1005.2 |
| 20260903081531 | 53 | 97 | 2.0 | 5.0 | 0.00 | 5.27 | 0.00 | 85 | 1005.1 |
| 20260903080030 | 53 | 127 | 0.0 | 1.0 | 0.00 | 5.27 | 0.00 | 85 | 1005.0 |
| 20260903074532 | 54 | 157 | 1.0 | 3.0 | 0.00 | 5.27 | 0.00 | 86 | 1004.7 |
| 20260903073030 | 55 | 272 | 0.0 | 4.0 | 0.00 | 5.27 | 0.00 | 89 | 1004.6 |
| 20260903071542 | 55 | 298 | 0.0 | 1.0 | 0.00 | 5.27 | 0.00 | 90 | 1004.7 |
| 20260903070035 | 55 | 293 | 0.0 | 5.0 | 0.00 | 5.27 | 0.00 | 90 | 1004.5 |
| 20260903064529 | 55 | 247 | 0.0 | 2.0 | 0.00 | 5.27 | 5.27 | 90 | 1004.5 |
| 20260903063028 | 55 | 225 | 1.0 | 4.0 | 0.00 | 5.27 | 5.27 | 90 | 1004.6 |
| 20260903061531 | 56 | 123 | 0.0 | 1.0 | 0.00 | 5.27 | 5.27 | 89 | 1004.5 |
| 20260903060032 | 57 | 112 | 1.0 | 4.0 | 0.00 | 5.27 | 5.27 | 89 | 1004.5 |
| 20260903053029 | 57 | 199 | 1.0 | 5.0 | 0.00 | 5.27 | 5.27 | 91 | 1004.5 |
| 20260903051531 | 57 | 260 | 2.0 | 8.0 | 0.00 | 5.27 | 5.27 | 91 | 1004.4 |
| 20260903050106 | 57 | 288 | 2.0 | 7.0 | 0.00 | 5.27 | 5.27 | 91 | 1004.2 |
| 20260903044530 | 57 | 291 | 1.0 | 5.0 | 0.00 | 5.27 | 5.27 | 91 | 1004.2 |
| 20260903043039 | 57 | 269 | 1.0 | 6.0 | 0.00 | 5.27 | 5.27 | 90 | 1004.2 |
| 20260903031531 | 58 | 243 | 3.0 | 6.0 | 0.10 | 5.26 | 5.25 | 87 | 1003.1 |
| 20260903030031 | 60 | 233 | 6.0 | 17.0 | 0.09 | 5.25 | 5.16 | 86 | 1002.9 |
| 20260903024646 | 61 | 243 | 4.0 | 10.0 | 0.00 | 5.16 | 5.16 | 88 | 1002.6 |
| 20260903023029 | 61 | 177 | 2.0 | 3.0 | 0.00 | 5.16 | 5.16 | 89 | 1002.2 |